This is the latest recevied weather packets stored in our database for station/object K7FLA. If no packets are shown the sender has not sent any weather packets the latest 10 day(s).
| Time | Temp. | Humidity | Pressure | Rain* | Wind** | Luminosity | Snow |
|---|---|---|---|---|---|---|---|
| 1788488249 | 21.67° C | 35% | 1093.3 hPa | 0 mm | - | 2 W/m² | - |
| 1788487949 | 21.67° C | 30% | 1093.5 hPa | 0 mm | - | 3 W/m² | - |
| 1788487645 | 22.22° C | 34% | 1093.3 hPa | 0 mm | - | 6 W/m² | - |
| 1788487345 | 22.22° C | 36% | 1093.5 hPa | 0 mm | - | 9 W/m² | - |
| 1788487043 | 22.22° C | 36% | 1093.2 hPa | 0 mm | - | 12 W/m² | - |
| 1788486739 | 22.78° C | 36% | 1093.2 hPa | 0 mm | - | 15 W/m² | - |
| 1788486437 | 22.78° C | 34% | 1093.4 hPa | 0 mm | - | 18 W/m² | - |
| 1788486132 | 23.33° C | 34% | 1093.4 hPa | 0 mm | - | 20 W/m² | - |
| 1788485824 | 23.33° C | 34% | 1093.3 hPa | 0 mm | - | 23 W/m² | - |
| 1788485519 | 23.33° C | 33% | 1093.4 hPa | 0 mm | - | 25 W/m² | - |
| 1788485215 | 23.89° C | 32% | 1093.6 hPa | 0 mm | - | 27 W/m² | - |
| 1788484914 | 23.89° C | 29% | 1093.3 hPa | 0 mm | - | 29 W/m² | - |
| 1788484614 | 24.44° C | 32% | 1093.3 hPa | 0 mm | - | 36 W/m² | - |
| 1788484309 | 25° C | 30% | 1093.1 hPa | 0 mm | - | 47 W/m² | - |
| 1788484004 | 25° C | 26% | 1093.1 hPa | 0 mm | - | 59 W/m² | - |
| 1788483701 | 25° C | 30% | 1093.3 hPa | 0 mm | - | 66 W/m² | - |
| 1788483401 | 25.56° C | 30% | 1093.1 hPa | 0 mm | - | 75 W/m² | - |
| 1788483097 | 25.56° C | 31% | 1093 hPa | 0 mm | - | 82 W/m² | - |
| 1788482792 | 25.56° C | 31% | 1093 hPa | 0 mm | - | 94 W/m² | - |
| 1788482491 | 26.11° C | 32% | 1093.1 hPa | 0 mm | - | 104 W/m² | - |
| 1788482188 | 26.11° C | 33% | 1093 hPa | 0 mm | - | 112 W/m² | - |
| 1788481884 | 26.11° C | 32% | 1093 hPa | 0 mm | - | 125 W/m² | - |
| 1788481580 | 26.67° C | 33% | 1093 hPa | 0 mm | - | 139 W/m² | - |
| 1788481280 | 26.67° C | 32% | 1092.8 hPa | 0 mm | - | 152 W/m² | - |
| 1788480975 | 26.67° C | 32% | 1092.8 hPa | 0 mm | - | 161 W/m² | - |
* Rain latest hour (hover to see other rain measurements)
** Current wind speed in m/s (hover to see current wind gust speed)